NOZ3208 EKCH-ESSA

Flight info

Callsign NOZ3208
Flight time 0h 59m
Altitude 37000
Route KEMAX5A KEMAX DCT RASMU DCT DETSO N873 ARS T317 ELTOK ELTOK8M
Aircraft B738/M-V/N

Departure

Time 2026-04-26 17:42
Airport Copenhagen Kastrup Airport (EKCH)

Arrival

Time 2026-04-26 18:42
Airport Stockholm-Arlanda Airport (ESSA)
Time Latitude Longitude Altitude Speed Heading
2026-04-26 17:12 55.62881 12.63935 16 ft 0 kts 12°
2026-04-26 17:27 55.62870 12.63931 16 ft 4 kts 19°
2026-04-26 17:27 55.62848 12.63909 16 ft 4 kts 53°
2026-04-26 17:27 55.62838 12.63868 17 ft 4 kts 90°
2026-04-26 17:27 55.62841 12.63821 17 ft 4 kts 103°
2026-04-26 17:28 55.62843 12.63806 19 ft 0 kts 102°
2026-04-26 17:31 55.62843 12.63807 19 ft 0 kts 102°
2026-04-26 17:31 55.62842 12.63819 18 ft 2 kts 99°
2026-04-26 17:31 55.62839 12.63848 18 ft 3 kts 99°
2026-04-26 17:31 55.62835 12.63886 18 ft 4 kts 103°
2026-04-26 17:32 55.62822 12.63942 16 ft 6 kts 121°
2026-04-26 17:32 55.62780 12.63970 16 ft 8 kts 196°
2026-04-26 17:32 55.62735 12.63914 16 ft 9 kts 215°
2026-04-26 17:32 55.62679 12.63849 16 ft 10 kts 213°
2026-04-26 17:33 55.62646 12.63867 16 ft 6 kts 130°
2026-04-26 17:33 55.62611 12.63962 18 ft 14 kts 121°
2026-04-26 17:33 55.62553 12.64115 16 ft 15 kts 124°
2026-04-26 17:34 55.62437 12.64409 16 ft 14 kts 134°
2026-04-26 17:34 55.62383 12.64548 18 ft 13 kts 121°
2026-04-26 17:34 55.62332 12.64683 16 ft 13 kts 124°
2026-04-26 17:34 55.62275 12.64789 16 ft 12 kts 154°
2026-04-26 17:35 55.62198 12.64760 17 ft 12 kts 212°
2026-04-26 17:35 55.62132 12.64683 17 ft 11 kts 212°
2026-04-26 17:35 55.62064 12.64605 17 ft 12 kts 213°
2026-04-26 17:35 55.61993 12.64527 16 ft 12 kts 206°
2026-04-26 17:36 55.61914 12.64503 16 ft 12 kts 176°
2026-04-26 17:36 55.61836 12.64528 16 ft 11 kts 169°
2026-04-26 17:36 55.61750 12.64556 16 ft 13 kts 169°
2026-04-26 17:36 55.61664 12.64552 16 ft 13 kts 208°
2026-04-26 17:37 55.61590 12.64469 16 ft 12 kts 213°
2026-04-26 17:37 55.61517 12.64385 16 ft 13 kts 213°
2026-04-26 17:37 55.61439 12.64295 17 ft 13 kts 213°
2026-04-26 17:38 55.61288 12.64123 17 ft 13 kts 213°
2026-04-26 17:38 55.61216 12.64039 16 ft 12 kts 213°
2026-04-26 17:38 55.61146 12.63958 16 ft 12 kts 213°
2026-04-26 17:38 55.61077 12.63880 18 ft 12 kts 213°
2026-04-26 17:39 55.61011 12.63804 17 ft 11 kts 213°
2026-04-26 17:39 55.60946 12.63729 16 ft 11 kts 213°
2026-04-26 17:39 55.60883 12.63656 17 ft 11 kts 213°
2026-04-26 17:39 55.60820 12.63590 17 ft 10 kts 201°
2026-04-26 17:40 55.60760 12.63641 16 ft 10 kts 133°
2026-04-26 17:40 55.60729 12.63701 16 ft 10 kts 131°
2026-04-26 17:40 55.60685 12.63834 18 ft 10 kts 86°
2026-04-26 17:40 55.60715 12.63932 18 ft 9 kts 37°
2026-04-26 17:41 55.60733 12.63961 18 ft 0 kts 40°
2026-04-26 17:41 55.60743 12.63976 18 ft 7 kts 40°
2026-04-26 17:42 55.60948 12.64293 19 ft 76 kts 41°
2026-04-26 17:42 55.61513 12.65165 17 ft 137 kts 40°
2026-04-26 17:42 55.62297 12.66384 425 ft 149 kts 41°
2026-04-26 17:42 55.63085 12.67621 980 ft 164 kts 39°
2026-04-26 17:43 55.63953 12.68950 1734 ft 160 kts 39°
2026-04-26 17:43 55.64853 12.70311 2348 ft 185 kts 38°
2026-04-26 17:43 55.65905 12.71935 2890 ft 211 kts 38°
2026-04-26 17:43 55.67085 12.73729 3248 ft 238 kts 37°
2026-04-26 17:44 55.68411 12.75748 3567 ft 265 kts 38°
2026-04-26 17:44 55.69864 12.77942 4265 ft 277 kts 36°
2026-04-26 17:44 55.71335 12.80095 5537 ft 272 kts 36°
2026-04-26 17:44 55.72769 12.82259 6619 ft 274 kts 36°
2026-04-26 17:45 55.74224 12.84432 7611 ft 271 kts 35°
2026-04-26 17:45 55.75658 12.86619 8463 ft 274 kts 36°
2026-04-26 17:45 55.77094 12.88856 9403 ft 275 kts 36°
2026-04-26 17:45 55.78542 12.91125 10217 ft 279 kts 36°
2026-04-26 17:46 55.80002 12.93413 10726 ft 294 kts 35°
2026-04-26 17:46 55.81610 12.95926 10930 ft 320 kts 36°
2026-04-26 17:46 55.83347 12.98649 11115 ft 343 kts 36°
2026-04-26 17:46 55.85163 13.01509 11403 ft 361 kts 36°
2026-04-26 17:47 55.87058 13.04511 12009 ft 368 kts 36°
2026-04-26 17:47 55.88355 13.06571 12519 ft 370 kts 36°
2026-04-26 17:47 55.90918 13.10648 13555 ft 374 kts 36°
2026-04-26 17:47 55.92877 13.13763 14270 ft 379 kts 36°
2026-04-26 17:48 55.94861 13.16919 14955 ft 383 kts 36°
2026-04-26 17:48 55.96831 13.20056 15656 ft 387 kts 36°
2026-04-26 17:48 55.98858 13.23287 16370 ft 391 kts 36°
2026-04-26 17:48 56.00900 13.26548 17053 ft 395 kts 36°
2026-04-26 17:49 56.02960 13.29840 17734 ft 400 kts 36°
2026-04-26 17:49 56.05049 13.33186 18397 ft 404 kts 36°
2026-04-26 17:49 56.06827 13.36036 18892 ft 407 kts 36°
2026-04-26 17:50 56.08446 13.38635 19333 ft 410 kts 36°
2026-04-26 17:50 56.10587 13.42074 19918 ft 414 kts 36°
2026-04-26 17:50 56.12826 13.45302 20526 ft 409 kts 25°
2026-04-26 17:50 56.15394 13.47141 21080 ft 401 kts 11°
2026-04-26 17:51 56.18090 13.48548 21641 ft 405 kts 11°
2026-04-26 17:51 56.20812 13.50023 22145 ft 410 kts 12°
2026-04-26 17:51 56.23557 13.51541 22651 ft 414 kts 12°
2026-04-26 17:51 56.26342 13.52828 23139 ft 414 kts
2026-04-26 17:52 56.29191 13.53721 23618 ft 416 kts
2026-04-26 17:52 56.32025 13.54506 24046 ft 419 kts
2026-04-26 17:52 56.34919 13.55286 24483 ft 421 kts
2026-04-26 17:52 56.37828 13.56082 24946 ft 423 kts
2026-04-26 17:53 56.40743 13.56904 25411 ft 424 kts
2026-04-26 17:53 56.43669 13.57749 25795 ft 426 kts
2026-04-26 17:53 56.46572 13.58602 26154 ft 429 kts
2026-04-26 17:54 56.52509 13.60373 26890 ft 434 kts
2026-04-26 17:54 56.55500 13.61273 27256 ft 436 kts
2026-04-26 17:54 56.58500 13.62178 27604 ft 438 kts
2026-04-26 17:54 56.61518 13.63089 27937 ft 440 kts
2026-04-26 17:55 56.64556 13.64008 28280 ft 442 kts
2026-04-26 17:55 56.67562 13.64919 28680 ft 442 kts
2026-04-26 17:55 56.70594 13.65840 29173 ft 440 kts
2026-04-26 17:55 56.73610 13.66759 29696 ft 438 kts
2026-04-26 17:56 56.76603 13.67672 30369 ft 432 kts
2026-04-26 17:56 56.82460 13.69465 31560 ft 421 kts
2026-04-26 17:57 56.88189 13.71214 32362 ft 420 kts
2026-04-26 17:57 56.91079 13.72095 32755 ft 420 kts
2026-04-26 17:57 56.93951 13.72975 33200 ft 418 kts
2026-04-26 17:58 57.05454 13.76517 33231 ft 416 kts
2026-04-26 17:59 57.13967 13.79154 33248 ft 417 kts
2026-04-26 17:59 57.19713 13.80937 33239 ft 419 kts
2026-04-26 18:00 57.25485 13.82738 33240 ft 420 kts
2026-04-26 18:00 57.31222 13.84534 33232 ft 420 kts
2026-04-26 18:01 57.36998 13.86348 33234 ft 420 kts
2026-04-26 18:01 57.42771 13.88167 33214 ft 420 kts
2026-04-26 18:02 57.46590 13.89374 33230 ft 420 kts
2026-04-26 18:02 57.54270 13.91807 33222 ft 420 kts
2026-04-26 18:03 57.60037 13.93641 33217 ft 420 kts
2026-04-26 18:03 57.65775 13.95471 33215 ft 420 kts
2026-04-26 18:04 57.71548 13.97319 33249 ft 420 kts
2026-04-26 18:05 57.80203 14.00100 33215 ft 420 kts
2026-04-26 18:05 57.85916 14.01944 33208 ft 419 kts
2026-04-26 18:06 57.91667 14.03806 33206 ft 418 kts
2026-04-26 18:06 57.97408 14.05670 33213 ft 418 kts
2026-04-26 18:07 58.03108 14.07527 33205 ft 417 kts
2026-04-26 18:07 58.07876 14.09085 33205 ft 418 kts
2026-04-26 18:08 58.13427 14.12716 33212 ft 431 kts 23°
2026-04-26 18:08 58.18345 14.19463 33208 ft 440 kts 33°
2026-04-26 18:09 58.23010 14.26904 33211 ft 441 kts 34°
2026-04-26 18:09 58.27710 14.34414 33201 ft 441 kts 33°
2026-04-26 18:10 58.32424 14.41881 33207 ft 440 kts 33°
2026-04-26 18:10 58.37099 14.49283 33185 ft 438 kts 33°
2026-04-26 18:11 58.41779 14.56709 33180 ft 436 kts 33°
2026-04-26 18:11 58.46435 14.64122 33182 ft 434 kts 33°
2026-04-26 18:12 58.51042 14.71481 33177 ft 433 kts 32°
2026-04-26 18:12 58.55656 14.78880 33186 ft 432 kts 32°
2026-04-26 18:13 58.60267 14.86299 33191 ft 431 kts 33°
2026-04-26 18:13 58.64872 14.93731 32993 ft 436 kts 33°
2026-04-26 18:13 58.66396 14.96275 32811 ft 439 kts 36°
2026-04-26 18:14 58.69035 15.02282 32456 ft 447 kts 46°
2026-04-26 18:14 58.70865 15.07132 32198 ft 449 kts 47°
2026-04-26 18:14 58.72673 15.12010 31957 ft 442 kts 46°
2026-04-26 18:14 58.74444 15.16800 31691 ft 436 kts 46°
2026-04-26 18:15 58.76210 15.21543 31442 ft 435 kts 46°
2026-04-26 18:15 58.77965 15.26221 31212 ft 437 kts 46°
2026-04-26 18:15 58.79755 15.30973 30953 ft 437 kts 46°
2026-04-26 18:15 58.81545 15.35718 30740 ft 437 kts 45°
2026-04-26 18:16 58.83337 15.40475 30498 ft 437 kts 45°
2026-04-26 18:16 58.86906 15.49974 29923 ft 437 kts 45°
2026-04-26 18:16 58.88676 15.54708 29428 ft 429 kts 45°
2026-04-26 18:17 58.90415 15.59374 28825 ft 424 kts 45°
2026-04-26 18:17 58.92148 15.64018 28173 ft 427 kts 45°
2026-04-26 18:17 58.93867 15.68629 27561 ft 423 kts 45°
2026-04-26 18:17 58.95556 15.73192 26879 ft 411 kts 45°
2026-04-26 18:18 58.97199 15.77644 26204 ft 400 kts 45°
2026-04-26 18:18 58.98804 15.81995 25556 ft 391 kts 45°
2026-04-26 18:18 59.00371 15.86242 24915 ft 383 kts 45°
2026-04-26 18:18 59.01877 15.90327 24313 ft 376 kts 45°
2026-04-26 18:19 59.03396 15.94448 23697 ft 370 kts 44°
2026-04-26 18:19 59.04883 15.98489 22972 ft 364 kts 45°
2026-04-26 18:19 59.06344 16.02465 22263 ft 358 kts 45°
2026-04-26 18:19 59.07781 16.06382 21566 ft 353 kts 45°
2026-04-26 18:20 59.09199 16.10256 20887 ft 349 kts 45°
2026-04-26 18:20 59.10595 16.14076 20361 ft 342 kts 45°
2026-04-26 18:20 59.11919 16.17723 20122 ft 327 kts 45°
2026-04-26 18:20 59.12802 16.20155 20001 ft 324 kts 44°
2026-04-26 18:21 59.14517 16.24863 19675 ft 320 kts 44°
2026-04-26 18:21 59.15804 16.28399 19231 ft 321 kts 44°
2026-04-26 18:21 59.17106 16.31970 18732 ft 324 kts 45°
2026-04-26 18:21 59.18426 16.35598 18159 ft 330 kts 45°
2026-04-26 18:22 59.19754 16.39254 17583 ft 338 kts 46°
2026-04-26 18:22 59.21139 16.43080 17008 ft 343 kts 46°
2026-04-26 18:22 59.22494 16.46844 16456 ft 345 kts 46°
2026-04-26 18:22 59.23878 16.50699 15900 ft 345 kts 47°
2026-04-26 18:23 59.25251 16.54537 15347 ft 344 kts 47°
2026-04-26 18:23 59.26622 16.58371 14802 ft 342 kts 47°
2026-04-26 18:23 59.27982 16.62179 14276 ft 341 kts 47°
2026-04-26 18:23 59.29338 16.65980 13716 ft 340 kts 47°
2026-04-26 18:24 59.30673 16.69731 13137 ft 330 kts 48°
2026-04-26 18:24 59.31943 16.73315 12614 ft 318 kts 48°
2026-04-26 18:24 59.33182 16.76813 12130 ft 308 kts 49°
2026-04-26 18:24 59.34390 16.80219 11646 ft 299 kts 49°
2026-04-26 18:25 59.35538 16.83457 11175 ft 292 kts 49°
2026-04-26 18:25 59.36675 16.86672 10979 ft 277 kts 49°
2026-04-26 18:25 59.37761 16.89743 10858 ft 273 kts 49°
2026-04-26 18:25 59.38828 16.92756 10743 ft 272 kts 49°
2026-04-26 18:26 59.39895 16.95776 10620 ft 267 kts 50°
2026-04-26 18:26 59.40854 16.98493 10520 ft 266 kts 50°
2026-04-26 18:26 59.41890 17.01432 10402 ft 265 kts 50°
2026-04-26 18:26 59.42940 17.04417 10299 ft 266 kts 50°
2026-04-26 18:27 59.44003 17.07439 10198 ft 271 kts 50°
2026-04-26 18:27 59.45082 17.10515 9958 ft 276 kts 50°
2026-04-26 18:27 59.46162 17.13599 9642 ft 277 kts 50°
2026-04-26 18:27 59.47250 17.16718 9319 ft 275 kts 50°
2026-04-26 18:28 59.48326 17.19805 9026 ft 270 kts 50°
2026-04-26 18:28 59.49374 17.22815 8747 ft 260 kts 50°
2026-04-26 18:28 59.50365 17.25667 8483 ft 252 kts 50°
2026-04-26 18:28 59.51347 17.28491 8217 ft 249 kts 50°
2026-04-26 18:29 59.52339 17.31346 7948 ft 249 kts 51°
2026-04-26 18:29 59.53275 17.34166 7688 ft 248 kts 52°
2026-04-26 18:29 59.54204 17.37022 7507 ft 245 kts 52°
2026-04-26 18:29 59.55114 17.39839 7349 ft 242 kts 52°
2026-04-26 18:30 59.56015 17.42661 7275 ft 245 kts 56°
2026-04-26 18:30 59.56503 17.45951 7134 ft 259 kts 85°
2026-04-26 18:30 59.56088 17.49426 7103 ft 266 kts 116°
2026-04-26 18:30 59.54877 17.52140 7115 ft 272 kts 144°
2026-04-26 18:31 59.53271 17.54193 7104 ft 275 kts 147°
2026-04-26 18:31 59.51659 17.56216 7096 ft 273 kts 147°
2026-04-26 18:31 59.50060 17.58218 7085 ft 271 kts 147°
2026-04-26 18:31 59.48468 17.60205 7040 ft 269 kts 147°
2026-04-26 18:32 59.46894 17.62167 6830 ft 267 kts 147°
2026-04-26 18:32 59.45335 17.64103 6508 ft 269 kts 147°
2026-04-26 18:32 59.43773 17.66033 6415 ft 260 kts 147°
2026-04-26 18:32 59.42261 17.67898 6333 ft 252 kts 147°
2026-04-26 18:33 59.40794 17.69703 6183 ft 247 kts 147°
2026-04-26 18:33 59.39337 17.71491 5957 ft 245 kts 147°
2026-04-26 18:33 59.37915 17.73326 5714 ft 244 kts 138°
2026-04-26 18:33 59.36937 17.75969 5462 ft 238 kts 110°
2026-04-26 18:34 59.36303 17.78943 5231 ft 236 kts 108°
2026-04-26 18:34 59.35754 17.81941 4967 ft 234 kts 96°
2026-04-26 18:34 59.35892 17.84970 4706 ft 219 kts 57°
2026-04-26 18:34 59.36925 17.86900 4457 ft 202 kts 15°
2026-04-26 18:35 59.38254 17.87080 4362 ft 184 kts 356°
2026-04-26 18:35 59.39500 17.87158 4281 ft 173 kts
2026-04-26 18:35 59.40657 17.87316 4178 ft 160 kts
2026-04-26 18:35 59.41726 17.87575 4041 ft 150 kts
2026-04-26 18:36 59.42744 17.87888 4008 ft 150 kts
2026-04-26 18:36 59.43756 17.88229 4012 ft 148 kts
2026-04-26 18:36 59.44783 17.88591 3816 ft 148 kts
2026-04-26 18:36 59.45775 17.88948 3624 ft 140 kts
2026-04-26 18:37 59.46725 17.89292 3444 ft 138 kts
2026-04-26 18:37 59.47670 17.89635 3252 ft 137 kts
2026-04-26 18:37 59.48582 17.89967 3006 ft 128 kts
2026-04-26 18:37 59.49443 17.90278 2866 ft 129 kts
2026-04-26 18:38 59.50318 17.90597 2698 ft 127 kts
2026-04-26 18:38 59.51172 17.90907 2531 ft 124 kts
2026-04-26 18:38 59.52028 17.91218 2359 ft 125 kts
2026-04-26 18:38 59.52886 17.91530 2192 ft 125 kts
2026-04-26 18:39 59.53726 17.91835 2026 ft 124 kts
2026-04-26 18:39 59.54577 17.92145 1856 ft 123 kts
2026-04-26 18:39 59.55417 17.92450 1673 ft 122 kts
2026-04-26 18:39 59.56258 17.92755 1505 ft 124 kts
2026-04-26 18:40 59.57113 17.93066 1333 ft 126 kts
2026-04-26 18:40 59.57983 17.93382 1147 ft 128 kts
2026-04-26 18:40 59.58851 17.93698 963 ft 129 kts
2026-04-26 18:40 59.59752 17.94022 797 ft 131 kts
2026-04-26 18:41 59.60653 17.94347 624 ft 136 kts
2026-04-26 18:41 59.61599 17.94699 420 ft 137 kts
2026-04-26 18:41 59.62520 17.95064 227 ft 133 kts
2026-04-26 18:41 59.63414 17.95372 143 ft 125 kts
2026-04-26 18:42 59.64066 17.95592 144 ft 64 kts 11°
2026-04-26 18:42 59.64363 17.95696 144 ft 38 kts
2026-04-26 18:42 59.64591 17.95630 139 ft 26 kts 342°
2026-04-26 18:42 59.64640 17.95594 138 ft 0 kts 339°
2026-04-26 18:43 59.64641 17.95594 138 ft 0 kts 339°
2026-04-26 18:43 59.64644 17.95592 138 ft 0 kts 339°
2026-04-26 18:44 59.64654 17.95584 138 ft 4 kts 339°
2026-04-26 18:44 59.64699 17.95551 137 ft 10 kts 340°
2026-04-26 18:44 59.64769 17.95500 137 ft 11 kts 339°
2026-04-26 18:44 59.64840 17.95467 137 ft 11 kts
2026-04-26 18:45 59.64912 17.95491 137 ft 10 kts 11°
2026-04-26 18:45 59.64981 17.95512 137 ft 10 kts
2026-04-26 18:45 59.65049 17.95506 137 ft 10 kts 350°
2026-04-26 18:45 59.65114 17.95478 137 ft 10 kts 343°
2026-04-26 18:46 59.65180 17.95442 137 ft 10 kts 345°
2026-04-26 18:46 59.65252 17.95406 137 ft 11 kts 345°
2026-04-26 18:46 59.65327 17.95366 137 ft 11 kts 345°
2026-04-26 18:46 59.65399 17.95329 137 ft 11 kts 346°
2026-04-26 18:47 59.65468 17.95293 137 ft 10 kts 345°
2026-04-26 18:47 59.65536 17.95257 137 ft 10 kts 344°
2026-04-26 18:47 59.65605 17.95219 137 ft 11 kts 346°
2026-04-26 18:47 59.65676 17.95182 137 ft 10 kts 345°
2026-04-26 18:48 59.65738 17.95117 137 ft 10 kts 305°
2026-04-26 18:48 59.65743 17.94969 137 ft 12 kts 257°
2026-04-26 18:48 59.65722 17.94792 137 ft 14 kts 255°
2026-04-26 18:48 59.65694 17.94588 137 ft 16 kts 255°
2026-04-26 18:49 59.65667 17.94370 137 ft 16 kts 256°
2026-04-26 18:49 59.65640 17.94160 137 ft 16 kts 256°
2026-04-26 18:49 59.65613 17.93942 137 ft 17 kts 256°
2026-04-26 18:49 59.65580 17.93693 137 ft 20 kts 256°
2026-04-26 18:50 59.65544 17.93410 137 ft 22 kts 255°
2026-04-26 18:50 59.65507 17.93120 137 ft 21 kts 256°
2026-04-26 18:50 59.65465 17.92852 137 ft 20 kts 249°
2026-04-26 18:50 59.65393 17.92609 137 ft 21 kts 230°
2026-04-26 18:51 59.65340 17.92515 137 ft 0 kts 211°
2026-04-26 18:52 59.65333 17.92505 137 ft 3 kts 212°
2026-04-26 18:53 59.65295 17.92493 137 ft 7 kts 169°
2026-04-26 18:53 59.65260 17.92566 137 ft 8 kts 116°
2026-04-26 18:53 59.65240 17.92665 137 ft 8 kts 110°
2026-04-26 18:53 59.65221 17.92777 137 ft 10 kts 105°
2026-04-26 18:54 59.65199 17.92880 137 ft 6 kts 122°
2026-04-26 18:54 59.65177 17.92921 136 ft 3 kts 161°
2026-04-26 18:54 59.65155 17.92914 137 ft 1 kts 194°
2026-04-26 18:54 59.65146 17.92906 137 ft 2 kts 210°
2026-04-26 18:55 59.65136 17.92896 137 ft 2 kts 207°
2026-04-26 18:55 59.65135 17.92896 136 ft 0 kts 207°